TimePST,TemperatureF,Dew PointF,Humidity,Sea Level PressureIn,VisibilityMPH,Wind Direction,Wind SpeedMPH,Gust SpeedMPH,PrecipitationIn,Events,Conditions,WindDirDegrees,DateUTC
12:52 AM,59.0,53.1,81,29.98,3.0,SE,4.6,-,N/A,,Overcast,140,2012-12-09 08:52:00
1:52 AM,59.0,53.1,81,29.99,3.0,Calm,Calm,-,N/A,,Overcast,0,2012-12-09 09:52:00
2:52 AM,60.1,53.1,78,29.99,3.0,Calm,Calm,-,N/A,,Overcast,0,2012-12-09 10:52:00
3:52 AM,59.0,52.0,78,29.98,3.0,ESE,5.8,-,N/A,,Overcast,110,2012-12-09 11:52:00
4:52 AM,59.0,51.1,75,29.98,3.0,East,4.6,-,N/A,,Overcast,100,2012-12-09 12:52:00
5:52 AM,57.9,50.0,75,29.99,3.0,ESE,3.5,-,N/A,,Overcast,110,2012-12-09 13:52:00
6:52 AM,57.9,50.0,75,30.02,3.0,North,4.6,-,N/A,,Overcast,350,2012-12-09 14:52:00
7:52 AM,59.0,50.0,72,30.03,2.0,NNE,4.6,-,N/A,,Haze,30,2012-12-09 15:52:00
8:52 AM,61.0,51.1,70,30.04,2.0,Calm,Calm,-,N/A,,Haze,0,2012-12-09 16:52:00
9:52 AM,61.0,51.1,70,30.05,2.0,South,4.6,-,N/A,,Haze,170,2012-12-09 17:52:00
10:21 AM,60.8,51.8,72,30.04,2.5,South,4.6,-,N/A,,Haze,170,2012-12-09 18:21:00
10:52 AM,62.1,51.1,67,30.04,3.0,South,4.6,-,N/A,,Haze,190,2012-12-09 18:52:00
11:52 AM,63.0,52.0,67,30.03,3.0,WNW,5.8,-,N/A,,Haze,300,2012-12-09 19:52:00
12:52 PM,64.0,51.1,63,30.00,4.0,West,5.8,-,N/A,,Haze,260,2012-12-09 20:52:00
1:52 PM,64.0,51.1,63,30.00,5.0,WNW,6.9,-,N/A,,Haze,300,2012-12-09 21:52:00
2:52 PM,64.0,51.1,63,30.00,5.0,NW,6.9,-,N/A,,Haze,310,2012-12-09 22:52:00
3:52 PM,63.0,51.1,65,30.02,5.0,NW,5.8,-,N/A,,Haze,320,2012-12-09 23:52:00
4:52 PM,60.1,51.1,72,30.04,5.0,NW,4.6,-,N/A,,Haze,320,2012-12-10 00:52:00
5:52 PM,60.1,52.0,75,30.06,5.0,NW,5.8,-,N/A,,Haze,320,2012-12-10 01:52:00
6:52 PM,60.1,52.0,75,30.08,5.0,NNW,3.5,-,N/A,,Haze,340,2012-12-10 02:52:00
7:52 PM,57.0,50.0,77,30.08,5.0,Calm,Calm,-,N/A,,Haze,0,2012-12-10 03:52:00
8:52 PM,55.9,51.1,84,30.10,5.0,Calm,Calm,-,N/A,,Scattered Clouds,0,2012-12-10 04:52:00
9:52 PM,55.9,51.1,84,30.11,5.0,Calm,Calm,-,N/A,,Partly Cloudy,0,2012-12-10 05:52:00
10:52 PM,54.0,48.9,83,30.12,4.0,Calm,Calm,-,N/A,,Scattered Clouds,0,2012-12-10 06:52:00
11:52 PM,55.0,50.0,83,30.12,4.0,Calm,Calm,-,N/A,,Scattered Clouds,0,2012-12-10 07:52:00